• în România
  • Lista ţărilor
  • Pe 7 zile
  • Temperatura apei
  • Hartă satelitară
  • Meteo pe hartă
  • Widget-uri
  • user-avatar
    Intrare

    Meteo pe oră la Malanje

    Astăzi, 24 Februarie, Vineri

    Timp Temperatura Precipitaţii Vânt Presiune Umiditate
    00:00 +19°C° 0 mm 2 m/s 664 mmHg 81%
    01:00 +19°C° 0 mm 2 m/s 664 mmHg 85%
    02:00 +18°C° 0,1 mm 2 m/s 664 mmHg 86%
    03:00 +18°C° 0,1 mm 2 m/s 664 mmHg 87%
    04:00 +19°C° 0,1 mm 1 m/s 664 mmHg 88%
    05:00 +19°C° 0 mm 1 m/s 664 mmHg 86%
    06:00 +20°C° 0 mm 1 m/s 664 mmHg 83%
    07:00 +21°C° 0 mm 1 m/s 665 mmHg 81%
    08:00 +23°C° 0 mm 1 m/s 665 mmHg 70%
    09:00 +26°C° 0 mm 2 m/s 666 mmHg 59%
    10:00 +29°C° 0 mm 2 m/s 667 mmHg 48%
    11:00 +30°C° 0 mm 2 m/s 666 mmHg 43%
    12:00 +31°C° 0 mm 2 m/s 666 mmHg 39%
    13:00 +34°C° 0 mm 3 m/s 666 mmHg 35%
    14:00 +33°C° 0 mm 3 m/s 665 mmHg 37%
    15:00 +33°C° 0 mm 3 m/s 664 mmHg 38%
    16:00 +31°C° 0 mm 3 m/s 664 mmHg 40%
    17:00 +29°C° 0,1 mm 3 m/s 663 mmHg 45%
    18:00 +27°C° 0,1 mm 3 m/s 663 mmHg 51%
    19:00 +25°C° 0,1 mm 3 m/s 663 mmHg 56%
    20:00 +24°C° 0,1 mm 3 m/s 664 mmHg 60%
    21:00 +22°C° 0,1 mm 4 m/s 664 mmHg 65%
    22:00 +21°C° 0,1 mm 4 m/s 665 mmHg 69%
    23:00 +20°C° 0,1 mm 3 m/s 665 mmHg 76%

    Mâine, 25 Februarie, Sâmbătă

    Timp Temperatura Precipitaţii Vânt Presiune Umiditate
    00:00 +19°C° 0,1 mm 3 m/s 664 mmHg 83%
    01:00 +18°C° 0,1 mm 2 m/s 664 mmHg 90%
    02:00 +18°C° 0 mm 2 m/s 664 mmHg 91%
    03:00 +18°C° 0 mm 2 m/s 664 mmHg 93%
    04:00 +18°C° 0 mm 2 m/s 664 mmHg 95%
    05:00 +18°C° 0 mm 2 m/s 664 mmHg 94%
    06:00 +18°C° 0 mm 3 m/s 665 mmHg 93%
    07:00 +18°C° 0 mm 3 m/s 665 mmHg 92%
    08:00 +21°C° 0 mm 3 m/s 665 mmHg 80%
    09:00 +24°C° 0 mm 3 m/s 666 mmHg 68%
    10:00 +26°C° 0 mm 3 m/s 667 mmHg 56%
    11:00 +28°C° 0 mm 3 m/s 666 mmHg 51%
    12:00 +29°C° 0 mm 3 m/s 666 mmHg 46%
    13:00 +31°C° 0 mm 3 m/s 665 mmHg 42%
    14:00 +30°C° 0,2 mm 3 m/s 665 mmHg 43%
    15:00 +30°C° 0,2 mm 2 m/s 664 mmHg 44%
    16:00 +30°C° 0,2 mm 2 m/s 664 mmHg 46%
    17:00 +28°C° 0,3 mm 2 m/s 664 mmHg 53%
    18:00 +26°C° 0,3 mm 2 m/s 664 mmHg 60%
    19:00 +24°C° 0,3 mm 1 m/s 664 mmHg 67%
    20:00 +23°C° 0,1 mm 2 m/s 664 mmHg 72%
    21:00 +21°C° 0,1 mm 2 m/s 664 mmHg 76%
    22:00 +20°C° 0,1 mm 2 m/s 664 mmHg 81%
    23:00 +19°C° 0 mm 2 m/s 664 mmHg 83%

    Poimâine, 26 Februarie, Duminică

    Timp Temperatura Precipitaţii Vânt Presiune Umiditate
    00:00 +19°C° 0 mm 2 m/s 664 mmHg 84%
    01:00 +19°C° 0 mm 2 m/s 664 mmHg 86%
    02:00 +19°C° 0 mm 2 m/s 663 mmHg 87%
    03:00 +18°C° 0 mm 2 m/s 663 mmHg 87%
    04:00 +18°C° 0 mm 2 m/s 663 mmHg 88%
    05:00 +18°C° 0 mm 2 m/s 663 mmHg 87%
    06:00 +19°C° 0 mm 2 m/s 664 mmHg 86%
    07:00 +19°C° 0 mm 2 m/s 664 mmHg 84%
    08:00 +23°C° 0 mm 2 m/s 665 mmHg 74%
    09:00 +25°C° 0 mm 1 m/s 666 mmHg 63%
    10:00 +28°C° 0 mm 1 m/s 666 mmHg 53%
    11:00 +29°C° 0,1 mm 1 m/s 666 mmHg 50%
    12:00 +30°C° 0,1 mm 1 m/s 665 mmHg 48%
    13:00 +32°C° 0,1 mm 1 m/s 665 mmHg 45%
    14:00 +30°C° 1,1 mm 2 m/s 664 mmHg 52%
    15:00 +29°C° 1,1 mm 2 m/s 663 mmHg 59%
    16:00 +28°C° 1,1 mm 2 m/s 662 mmHg 67%
    17:00 +26°C° 0,5 mm 2 m/s 662 mmHg 72%
    18:00 +24°C° 0,5 mm 2 m/s 662 mmHg 78%
    19:00 +21°C° 0,5 mm 2 m/s 662 mmHg 84%
    20:00 +21°C° 0,1 mm 2 m/s 663 mmHg 84%
    21:00 +20°C° 0,1 mm 3 m/s 663 mmHg 84%
    22:00 +20°C° 0,1 mm 3 m/s 663 mmHg 85%
    23:00 +19°C° 0,2 mm 3 m/s 663 mmHg 88%

    27 Februarie, Luni

    Timp Temperatura Precipitaţii Vânt Presiune Umiditate
    00:00 +19°C° 0,2 mm 2 m/s 663 mmHg 91%
    01:00 +18°C° 0,2 mm 2 m/s 662 mmHg 94%
    02:00 +18°C° 0 mm 2 m/s 662 mmHg 95%
    03:00 +18°C° 0 mm 2 m/s 662 mmHg 95%
    04:00 +18°C° 0 mm 2 m/s 662 mmHg 96%
    05:00 +18°C° 0 mm 2 m/s 662 mmHg 95%
    06:00 +18°C° 0 mm 2 m/s 663 mmHg 95%
    07:00 +18°C° 0 mm 2 m/s 663 mmHg 94%
    08:00 +20°C° 0 mm 2 m/s 664 mmHg 86%
    09:00 +23°C° 0 mm 2 m/s 665 mmHg 78%
    10:00 +25°C° 0 mm 2 m/s 665 mmHg 70%
    11:00 +26°C° 0 mm 2 m/s 665 mmHg 63%
    12:00 +28°C° 0 mm 3 m/s 664 mmHg 57%
    13:00 +29°C° 0 mm 3 m/s 664 mmHg 50%
    14:00 +29°C° 0 mm 3 m/s 663 mmHg 50%
    15:00 +29°C° 0 mm 3 m/s 663 mmHg 51%
    16:00 +28°C° 0 mm 3 m/s 662 mmHg 52%
    17:00 +27°C° 0,1 mm 3 m/s 663 mmHg 57%
    18:00 +25°C° 0,1 mm 3 m/s 663 mmHg 62%
    19:00 +23°C° 0,1 mm 2 m/s 663 mmHg 67%
    20:00 +21°C° 0 mm 2 m/s 663 mmHg 69%
    21:00 +21°C° 0 mm 2 m/s 663 mmHg 71%
    22:00 +20°C° 0 mm 2 m/s 664 mmHg 73%
    23:00 +20°C° 0 mm 2 m/s 663 mmHg 74%

    28 Februarie, Marţi

    Timp Temperatura Precipitaţii Vânt Presiune Umiditate
    00:00 +19°C° 0 mm 2 m/s 663 mmHg 76%
    01:00 +19°C° 0 mm 2 m/s 663 mmHg 77%
    02:00 +18°C° 0 mm 2 m/s 662 mmHg 82%
    03:00 +18°C° 0 mm 2 m/s 662 mmHg 87%
    04:00 +18°C° 0 mm 2 m/s 662 mmHg 91%
    05:00 +18°C° 0 mm 2 m/s 663 mmHg 92%
    06:00 +18°C° 0 mm 2 m/s 663 mmHg 92%
    07:00 +19°C° 0 mm 2 m/s 664 mmHg 92%
    08:00 +21°C° 0 mm 2 m/s 664 mmHg 83%
    09:00 +24°C° 0 mm 2 m/s 665 mmHg 73%
    10:00 +26°C° 0 mm 2 m/s 666 mmHg 63%
    11:00 +27°C° 0,1 mm 2 m/s 665 mmHg 56%
    12:00 +29°C° 0,1 mm 2 m/s 665 mmHg 49%
    13:00 +30°C° 0,1 mm 3 m/s 664 mmHg 41%
    14:00 +30°C° 0 mm 3 m/s 664 mmHg 41%
    15:00 +30°C° 0 mm 3 m/s 664 mmHg 40%
    16:00 +30°C° 0 mm 3 m/s 663 mmHg 40%
    17:00 +28°C° 0 mm 3 m/s 663 mmHg 44%
    18:00 +26°C° 0 mm 3 m/s 663 mmHg 49%
    19:00 +24°C° 0 mm 3 m/s 663 mmHg 53%
    20:00 +22°C° 0 mm 3 m/s 663 mmHg 56%
    21:00 +21°C° 0 mm 3 m/s 664 mmHg 59%
    22:00 +20°C° 0 mm 3 m/s 664 mmHg 63%
    23:00 +19°C° 0 mm 3 m/s 664 mmHg 69%

    1 Martie, Miercuri

    Timp Temperatura Precipitaţii Vânt Presiune Umiditate
    00:00 +18°C° 0 mm 3 m/s 663 mmHg 76%
    01:00 +17°C° 0 mm 3 m/s 663 mmHg 83%
    02:00 +17°C° 0 mm 2 m/s 663 mmHg 87%
    03:00 +17°C° 0 mm 2 m/s 663 mmHg 91%
    04:00 +16°C° 0 mm 2 m/s 663 mmHg 95%
    05:00 +17°C° 0 mm 2 m/s 663 mmHg 94%
    06:00 +17°C° 0 mm 2 m/s 664 mmHg 93%
    07:00 +18°C° 0 mm 2 m/s 664 mmHg 92%
    08:00 +21°C° 0 mm 2 m/s 665 mmHg 76%
    09:00 +25°C° 0 mm 2 m/s 665 mmHg 61%
    10:00 +28°C° 0 mm 2 m/s 666 mmHg 45%
    11:00 +29°C° 0 mm 3 m/s 666 mmHg 39%
    12:00 +31°C° 0 mm 3 m/s 665 mmHg 34%
    13:00 +33°C° 0 mm 3 m/s 665 mmHg 28%
    14:00 +33°C° 0 mm 4 m/s 664 mmHg 29%
    15:00 +33°C° 0 mm 4 m/s 664 mmHg 30%
    16:00 +33°C° 0 mm 4 m/s 663 mmHg 31%
    17:00 +29°C° 0 mm 4 m/s 663 mmHg 36%
    18:00 +27°C° 0 mm 3 m/s 663 mmHg 42%
    19:00 +24°C° 0 mm 3 m/s 663 mmHg 47%
    20:00 +22°C° 0 mm 3 m/s 664 mmHg 50%
    21:00 +21°C° 0 mm 3 m/s 664 mmHg 53%
    22:00 +20°C° 0 mm 3 m/s 665 mmHg 55%
    23:00 +19°C° 0 mm 2 m/s 664 mmHg 63%
    Arată mai mult